Weather in Kansas City

United States     39°06′10″N   94°37′33″W
temp.,
°C
wind,
m/s
gust,
m/s
humid.,
%
clouds,
%
prec.,
mm/h
press.,
hPa
HPBL,
m
26 may, thu
thu2601:00+12se359690 0.0 1005160
04:00+10sse249899 0.0 1005126
07:00+11wnw0195100 0.0 100699
10:00+13n3692100 0.0 1007375
13:00+13nw4997100 1.8 1008620
16:00+15nnw5109069 1.5 1007689
19:00+15nw7128852 1.9 1008685
22:00+14nw5118146 0.0 1010651
27 may, fri
fri2701:00+10nnw310952 0.0 1011320
04:00+9nw39966 0.0 1013230
07:00+9nw411920 0.0 1015299
10:00+16nnw59670 0.0 1014601
13:00+21nnw46550 0.0 1014940
16:00+23nnw34520 0.0 10131167
19:00+23w00653 0.0 1012328
22:00+16se33800 0.0 101246
28 may, sat
sat2801:00+15se37864 0.0 1012105
04:00+14s410925 0.0 1011209
07:00+15sse5139026 0.1 1010310
10:00+21sse7137235 0.3 1009628
13:00+25s8126511 0.6 10061135
16:00+28s813677 0.0 10031387
19:00+26s7137614 0.0 10021111
22:00+24s7167959 0.0 1002825
29 may, sun
sun2901:00+24s8197418 0.0 1000878
04:00+24s92063100 0.0 998995
07:00+24s92058100 0.0 998917
10:00+25ssw10226396 0.0 999770
13:00+28ssw9186199 0.0 999866
16:00+29ssw10176556 0.0 9991006
19:00+27ssw10187095 0.0 1001932
22:00+26s10215679 0.0 1003877
30 may, mon
mon3001:00+25s112250100 0.0 1004922
04:00+25s9214871 0.0 1005937
07:00+22s821621 0.0 1008784
10:00+25ssw919612 0.0 1009928
13:00+28s916540 0.0 10091038
16:00+29s915590 0.0 10091217
19:00+26sse814690 0.0 10101141
22:00+24s616610 0.0 1012799